Las Vegas, NV

9:02 AM PDT on September 26, 2016 (GMT -0700)
Nellis AFB

Weather History for KLSV - April, 2013

Change the Weather History Date:

Friday, April 26, 2013

  Actual Average Record
Temperature  
Mean Temperature 72 °F -  
Max Temperature 86 °F 79 °F 93 °F (2001)
Min Temperature 59 °F 55 °F 51 °F (2015)
Cooling Degree Days 8    
Growing Degree Days 22 (Base 50)    
Moisture  
Dew Point 23 °F    
Average Humidity 17    
Maximum Humidity 38    
Minimum Humidity 7    
Precipitation  
Precipitation 0.00 in - - ()
Sea Level Pressure  
Sea Level Pressure 30.01 in    
Wind  
Wind Speed 6 mph (ENE)    
Max Wind Speed 13 mph    
Max Gust Speed -    
Visibility 10 miles    
Events      
Averages and records for this station are not official NWS values.
T = Trace of Precipitation, MM = Missing Value Source: NWS Daily Summary

Daily Weather History Graph

Daily Weather History Graph

Search for Another Location

Airport or City:

Trip Planner

Search our weather history database for the weather conditions in past years. The results will help you decide how hot, cold, wet, or windy it might be!

Date:

Astronomy

Apr. 26, 2013 Rise Set
Actual Time 5:52 AM PDT 7:23 PM PDT
Civil Twilight 5:25 AM PDT 7:51 PM PDT
Nautical Twilight 4:52 AM PDT 8:23 PM PDT
Astronomical Twilight 4:18 AM PDT 8:58 PM PDT
Moon 8:48 PM PDT 6:25 AM PDT
Length of Visible Light 14h 25m
Length of Day
13h 31m
Full, 99% of the Moon is Illuminated
Apr 26
Full
May 2
Last Quarter
May 9
New
May 17
First Quarter
May 24
Full

Hourly Weather History & Observations

Time (PDT) Temp. Dew Point Humidity Pressure Visibility Wind Dir Wind Speed Gust Speed Precip Events Conditions
12:58 AM 66.2 °F 26.8 °F 23% 29.89 in 10.0 mi NNE 4.6 mph - N/A   Clear
1:58 AM 64.9 °F 29.5 °F 26% 29.90 in 10.0 mi North 4.6 mph - N/A   Clear
2:58 AM 61.0 °F 32.5 °F 34% 29.92 in 10.0 mi NE 6.9 mph - N/A   Clear
3:58 AM 61.3 °F 34.2 °F 36% 29.96 in 10.0 mi NE 11.5 mph - N/A   Clear
4:58 AM 60.6 °F 34.5 °F 38% 29.97 in 10.0 mi ENE 12.7 mph - N/A   Clear
5:58 AM 59.5 °F 32.5 °F 36% 30.01 in 10.0 mi ENE 6.9 mph - N/A   Clear
6:58 AM 63.3 °F 31.5 °F 30% 30.03 in 10.0 mi ENE 10.4 mph - N/A   Clear
7:58 AM 66.4 °F 21.4 °F 18% 30.06 in 10.0 mi NW 5.8 mph - N/A   Clear
8:58 AM 69.4 °F 23.2 °F 17% 30.07 in 10.0 mi Calm Calm - N/A   Clear
9:58 AM 76.1 °F 16.2 °F 10% 30.07 in 10.0 mi ESE 3.5 mph - N/A   Clear
10:58 AM 79.2 °F 21.2 °F 12% 30.07 in 10.0 mi East 8.1 mph - N/A   Clear
11:58 AM 81.3 °F 26.4 °F 13% 30.06 in 10.0 mi NNE 10.4 mph - N/A   Clear
12:58 PM 83.1 °F 23.0 °F 11% 30.05 in 10.0 mi Variable 6.9 mph - N/A   Clear
1:58 PM 84.0 °F 17.6 °F 8% 30.03 in 10.0 mi ENE 2.3 mph - N/A   Clear
2:58 PM 84.7 °F 17.6 °F 8% 30.02 in 10.0 mi South 4.6 mph - N/A   Clear
3:58 PM 86.0 °F 16.2 °F 7% 29.99 in 10.0 mi East 5.8 mph - N/A   Clear
4:58 PM 86.2 °F 15.6 °F 7% 29.98 in 10.0 mi North 9.2 mph - N/A   Clear
5:58 PM 85.3 °F 14.9 °F 7% 29.98 in 10.0 mi Calm Calm - N/A   Clear
6:58 PM 84.4 °F 17.4 °F 8% 29.98 in 10.0 mi East 4.6 mph - N/A   Clear
7:58 PM 82.4 °F 18.5 °F 9% 29.99 in 10.0 mi ESE 5.8 mph - N/A   Clear
8:58 PM 79.3 °F 20.8 °F 11% 30.01 in 10.0 mi SE 4.6 mph - N/A   Clear
9:58 PM 73.4 °F 20.1 °F 13% 30.02 in 10.0 mi North 8.1 mph - N/A   Clear
10:58 PM 70.7 °F 19.8 °F 15% 30.03 in 10.0 mi Variable 2.3 mph - N/A   Clear
11:58 PM 66.4 °F 19.8 °F 17% 30.04 in 10.0 mi ENE 2.3 mph - N/A   Clear